DW3039 Karjalohja FI current weather conditions

sailwx.info

Wind from 156

Air temperature 3.9° C
Dewpoint 1.8° C

Last reported at 2018-Apr-26 22:09 UTC.
Time now 2018-Apr-26 22:55 UTC

Location: N 60°16' E 023°41'.
View on Google Maps.

See reports from other nearby stations

  
Tides and Currents Weather Stations Pressure Air Temp Water Temp Dewpoint Dewpoint Depression Visibility Wind Speed Wind Dir Waves Ship Positions
date/time (UTC)wind fromknots sea level pressurealtimeterstation pressurevisibilityair tempwater tempwave heightnotes
2018-Apr-26 22:09 156 3.9
2018-Apr-26 21:59 156 3.9
2018-Apr-26 21:49 156 3.9
2018-Apr-26 21:39 156 4.4
2018-Apr-26 21:29 156 4.4
2018-Apr-26 21:19 156 4.4
2018-Apr-26 21:09 156 4.4
2018-Apr-26 20:59 156 4.4
2018-Apr-26 20:49 156 4.4
2018-Apr-26 20:39 200 4.4
2018-Apr-26 20:29 208 0 gusting 4 5.0
2018-Apr-26 20:19 210 1 gusting 3 5.0
2018-Apr-26 20:09 208 1 gusting 6 5.0
2018-Apr-26 19:59 203 1 gusting 5 5.0
2018-Apr-26 19:49 220 1 gusting 5 5.0
2018-Apr-26 19:39 210 2 gusting 4 5.0
2018-Apr-26 19:29 211 3 gusting 6 5.0
2018-Apr-26 19:19 210 2 gusting 6 5.0
2018-Apr-26 19:09 196 5.6
2018-Apr-26 18:59 196 5.6
2018-Apr-26 18:49 196 6.1
2018-Apr-26 18:39 196 6.1
2018-Apr-26 18:29 196 6.7
2018-Apr-26 18:19 196 7.2
2018-Apr-26 18:09 196 7.2
2018-Apr-26 17:59 196 7.8
2018-Apr-26 17:49 224 1 gusting 10 7.8
2018-Apr-26 17:39 221 3 gusting 7 7.8
2018-Apr-26 17:29 220 3 gusting 7 8.3
2018-Apr-26 17:19 221 3 gusting 6 8.3
2018-Apr-26 17:09 225 3 gusting 6 8.3
2018-Apr-26 16:59 228 4 gusting 8 8.3
2018-Apr-26 16:49 233 3 gusting 9 8.3
2018-Apr-26 16:39 209 6 gusting 10 8.9
2018-Apr-26 16:29 211 7 gusting 12 8.9
2018-Apr-26 16:19 250 3 gusting 10 8.9
2018-Apr-26 16:09 219 4 gusting 10 8.9
2018-Apr-26 15:59 276 5 gusting 14 8.9
2018-Apr-26 15:49 275 4 gusting 18 8.9
2018-Apr-26 15:39 217 5 gusting 13 8.9
2018-Apr-26 15:29 257 5 gusting 18 8.9
2018-Apr-26 15:09 207 7 gusting 16 9.4
2018-Apr-26 14:59 222 9 gusting 18 9.4
2018-Apr-26 14:49 246 6 gusting 17 9.4
2018-Apr-26 14:39 243 5 gusting 10 9.4
2018-Apr-26 14:29 215 5 gusting 8 9.4
2018-Apr-26 14:19 255 2 gusting 12 9.4
2018-Apr-26 14:08 226 6 gusting 14 9.4
2018-Apr-26 13:58 226 8 gusting 14 9.4
2018-Apr-26 13:48 224 6 gusting 13 10.0
2018-Apr-26 13:38 271 6 gusting 11 10.0
2018-Apr-26 13:28 238 6 gusting 13 10.0
2018-Apr-26 13:18 254 4 gusting 13 10.0
2018-Apr-26 13:08 208 8 gusting 14 10.6
2018-Apr-26 12:58 266 4 gusting 13 10.0
2018-Apr-26 12:48 217 7 gusting 16 10.0
2018-Apr-26 12:38 214 6 gusting 15 10.0
2018-Apr-26 12:28 255 5 gusting 13 10.0
2018-Apr-26 12:18 214 8 gusting 15 10.6
2018-Apr-26 12:08 250 6 gusting 17 10.6
2018-Apr-26 11:58 212 6 gusting 13 10.0
2018-Apr-26 11:48 237 6 gusting 13 9.4
2018-Apr-26 11:38 262 4 gusting 11 8.9
2018-Apr-26 11:28 236 6 gusting 13 8.9
2018-Apr-26 11:18 241 1 gusting 7 8.9
2018-Apr-26 11:08 244 4 gusting 12 8.9
2018-Apr-26 10:58 269 3 gusting 8 8.9
2018-Apr-26 10:48 242 3 gusting 7 8.9
2018-Apr-26 10:38 269 0 gusting 7 8.3
2018-Apr-26 10:28 216 1 gusting 11 8.3
2018-Apr-26 10:18 262 0 gusting 8 8.3
2018-Apr-26 10:08 293 3 gusting 7 8.3
2018-Apr-26 09:58 248 5 gusting 12 8.3
2018-Apr-26 09:48 242 6 gusting 9 8.3
2018-Apr-26 09:38 228 4 gusting 11 8.3
2018-Apr-26 09:27 257 1 gusting 9 8.3
2018-Apr-26 09:17 339 5 gusting 11 8.3
2018-Apr-26 09:07 245 5 gusting 10 7.8
2018-Apr-26 08:57 246 6 gusting 12 7.8
2018-Apr-26 08:47 237 4 gusting 12 7.2
2018-Apr-26 08:37 233 3 gusting 7 6.7
2018-Apr-26 08:27 244 3 gusting 7 6.7
2018-Apr-26 08:17 214 6.1
2018-Apr-26 08:07 246 2 gusting 6 6.1
2018-Apr-26 07:57 207 2 gusting 6 5.6
2018-Apr-26 07:47 202 1 gusting 4 5.6
2018-Apr-26 07:37 241 4 gusting 6 5.6
2018-Apr-26 07:27 250 0 gusting 8 5.6
2018-Apr-26 07:17 210 2 gusting 7 5.0
2018-Apr-26 07:07 218 2 gusting 7 5.0
2018-Apr-26 06:57 226 2 gusting 6 4.4
2018-Apr-26 06:47 127 4.4
2018-Apr-26 06:37 127 3.9
2018-Apr-26 06:27 215 3 gusting 6 3.9
2018-Apr-26 06:17 205 5 gusting 6 3.9
2018-Apr-26 06:07 209 0 gusting 3 3.3
2018-Apr-26 05:57 197 3.3
2018-Apr-26 05:47 197 3.3
2018-Apr-26 05:37 196 2.8
2018-Apr-26 05:27 196 2.8
2018-Apr-26 05:17 196 2.8
2018-Apr-26 05:07 196 2.8
2018-Apr-26 04:57 196 2.2
2018-Apr-26 04:47 196 2.2
2018-Apr-26 04:37 242 2.2
2018-Apr-26 04:27 242 2.2
2018-Apr-26 04:17 242 2.2
2018-Apr-26 04:07 242 1.7
2018-Apr-26 03:57 242 1.7
2018-Apr-26 03:47 259 2.2
2018-Apr-26 03:37 239 2.2
2018-Apr-26 03:27 239 2.2
2018-Apr-26 03:17 239 2.2
2018-Apr-26 03:07 239 2.2
2018-Apr-26 02:57 239 2.2
2018-Apr-26 02:47 239 2.2
2018-Apr-26 02:36 239 2.2
2018-Apr-26 02:26 239 2.2
2018-Apr-26 02:16 239 2.2
2018-Apr-26 02:06 239 2.2
2018-Apr-26 01:56 239 2.2
2018-Apr-26 01:46 239 2.2
2018-Apr-26 01:36 247 0 gusting 6 2.2
2018-Apr-26 01:26 261 2.2
2018-Apr-26 01:16 127 2.2
2018-Apr-26 01:06 127 2.2
2018-Apr-26 00:56 127 1.7
2018-Apr-26 00:46 127 1.7
2018-Apr-26 00:36 127 1.1
2018-Apr-26 00:26 127 1.7
2018-Apr-26 00:16 127 1.7
2018-Apr-26 00:06 127 1.7
2018-Apr-25 23:56 127 1.7
2018-Apr-25 23:46 127 1.7
2018-Apr-25 23:36 127 1.7
2018-Apr-25 23:26 127 2.2
2018-Apr-25 23:16 127 2.2
2018-Apr-25 23:06 127 2.2
2018-Apr-25 22:56 127 2.8
2018-Apr-25 22:46 127 2.8
2018-Apr-25 22:36 127 2.8
2018-Apr-25 22:26 127 3.3
2018-Apr-25 22:16 127 3.3
2018-Apr-25 22:06 127 3.3
2018-Apr-25 21:56 127 3.3
2018-Apr-25 21:46 127 3.3
2018-Apr-25 21:36 127 3.3
2018-Apr-25 21:26 127 3.3
2018-Apr-25 21:16 127 3.9
2018-Apr-25 21:06 127 3.9
2018-Apr-25 20:56 127 3.9
2018-Apr-25 20:46 127 4.4
2018-Apr-25 20:36 127 4.4
2018-Apr-25 20:26 127 5.0
2018-Apr-25 20:16 127 5.0
2018-Apr-25 20:06 127 5.0
2018-Apr-25 19:56 127 5.6
2018-Apr-25 19:46 127 5.6
2018-Apr-25 19:36 127 6.1
2018-Apr-25 19:26 127 6.1
2018-Apr-25 19:16 217 1 gusting 4 6.1
2018-Apr-25 19:06 224 1 gusting 4 6.1
2018-Apr-25 18:56 227 2 gusting 5 6.1
2018-Apr-25 18:46 180 6.1
2018-Apr-25 18:36 200 2 gusting 6 6.7
2018-Apr-25 18:26 190 3 gusting 6 6.7
2018-Apr-25 18:16 199 6.7
2018-Apr-25 18:06 191 5 gusting 6 6.7
2018-Apr-25 17:56 220 3 gusting 5 6.7
2018-Apr-25 17:46 214 0 gusting 5 6.7
2018-Apr-25 17:36 195 1 gusting 7 6.7
2018-Apr-25 17:26 149 7.2
2018-Apr-25 17:15 149 7.2
2018-Apr-25 17:05 225 0 gusting 9 7.2
2018-Apr-25 16:55 207 7.2
2018-Apr-25 16:45 206 4 gusting 7 7.2
2018-Apr-25 16:35 212 2 gusting 8 7.2
2018-Apr-25 16:25 202 6 gusting 9 7.2
2018-Apr-25 16:15 222 3 gusting 7 7.8
2018-Apr-25 16:05 192 4 gusting 9 7.8
2018-Apr-25 15:55 214 4 gusting 10 7.8
2018-Apr-25 15:45 209 6 gusting 12 7.8
2018-Apr-25 15:35 209 5 gusting 11 8.3
2018-Apr-25 15:25 189 4 gusting 10 8.3
2018-Apr-25 15:15 189 6 gusting 10 8.3
2018-Apr-25 15:05 199 4 gusting 8 8.3
2018-Apr-25 14:55 215 5 gusting 8 8.9
2018-Apr-25 14:45 216 6 gusting 10 8.9
2018-Apr-25 14:35 215 6 gusting 11 8.9
2018-Apr-25 14:25 212 4 gusting 7 8.9
2018-Apr-25 14:15 206 3 gusting 9 8.9
2018-Apr-25 14:05 181 3 gusting 7 8.9
2018-Apr-25 13:55 249 4 gusting 12 9.4
2018-Apr-25 13:45 191 4 gusting 13 9.4
2018-Apr-25 13:35 212 2 gusting 7 9.4
2018-Apr-25 13:25 195 6 gusting 8 9.4
2018-Apr-25 13:15 208 5 gusting 12 9.4
2018-Apr-25 13:05 197 8 gusting 13 9.4
2018-Apr-25 12:55 214 7 gusting 13 9.4
2018-Apr-25 12:45 217 7 gusting 12 10.0
2018-Apr-25 12:35 202 6 gusting 13 10.0
2018-Apr-25 12:25 213 5 gusting 14 10.0
2018-Apr-25 12:15 184 6 gusting 15 10.0
2018-Apr-25 12:05 201 6 gusting 15 10.0
2018-Apr-25 11:55 216 6 gusting 10 10.0
2018-Apr-25 11:45 185 3 gusting 10 10.0
2018-Apr-25 11:35 191 4 gusting 12 10.6
2018-Apr-25 11:25 212 6 gusting 13 10.0
2018-Apr-25 11:15 207 5 gusting 10 10.0
2018-Apr-25 11:05 212 7 gusting 11 10.0
2018-Apr-25 10:55 199 2 gusting 12 10.0
2018-Apr-25 10:45 207 5 gusting 12 9.4
2018-Apr-25 10:35 205 5 gusting 10 9.4
2018-Apr-25 10:25 207 7 gusting 14 8.9
2018-Apr-25 10:15 212 6 gusting 10 8.9
2018-Apr-25 10:05 207 5 gusting 11 8.9
2018-Apr-25 09:55 194 6 gusting 10 8.9
2018-Apr-25 09:45 208 6 gusting 10 8.9
2018-Apr-25 09:35 215 5 gusting 8 8.3
2018-Apr-25 09:25 201 2 gusting 12 7.8
2018-Apr-25 09:15 190 3 gusting 7 7.8
2018-Apr-25 09:05 217 1 gusting 7 7.2
2018-Apr-25 08:54 196 4 gusting 6 7.2
2018-Apr-25 08:44 210 2 gusting 5 7.2
2018-Apr-25 08:34 203 3 gusting 6 7.2
2018-Apr-25 08:24 216 3 gusting 6 7.2
2018-Apr-25 08:14 207 3 gusting 6 6.7
2018-Apr-25 08:04 214 6.7
2018-Apr-25 07:54 176 0 gusting 4 6.7
2018-Apr-25 07:44 182 6.7
2018-Apr-25 07:34 193 1 gusting 6 6.1
2018-Apr-25 07:24 146 6.1
2018-Apr-25 07:14 146 6.1
2018-Apr-25 07:04 188 6.1
2018-Apr-25 06:54 143 6.1
2018-Apr-25 06:44 143 5.6
2018-Apr-25 06:34 172 5.6
2018-Apr-25 06:24 172 5.6
2018-Apr-25 06:14 172 5.6
2018-Apr-25 06:04 172 6.1
2018-Apr-25 05:54 172 5.6
2018-Apr-25 05:44 172 5.6
2018-Apr-25 05:34 172 5.6
2018-Apr-25 05:24 172 5.6
2018-Apr-25 05:14 172 5.6
2018-Apr-25 05:04 172 5.6
2018-Apr-25 04:54 172 5.6
2018-Apr-25 04:44 172 5.6
2018-Apr-25 04:34 172 5.6
2018-Apr-25 04:24 172 5.6
2018-Apr-25 04:14 172 5.6
2018-Apr-25 04:04 172 5.6
2018-Apr-25 03:54 172 5.6
2018-Apr-25 03:44 172 5.6
2018-Apr-25 03:34 064 5.6
2018-Apr-25 03:24 098 5.6
2018-Apr-25 03:14 127 5.6
2018-Apr-25 03:04 138 0 gusting 3 5.6
2018-Apr-25 02:54 158 5.6
2018-Apr-25 02:44 158 5.6
2018-Apr-25 02:34 158 5.6
2018-Apr-25 02:24 158 5.6
2018-Apr-25 02:14 158 5.6
2018-Apr-25 02:04 158 5.6
2018-Apr-25 01:54 158 5.6
2018-Apr-25 01:44 158 5.6
2018-Apr-25 01:34 158 5.6
2018-Apr-25 01:24 158 5.6
2018-Apr-25 01:14 158 5.6
2018-Apr-25 01:04 158 5.6
2018-Apr-25 00:54 128 5.6
2018-Apr-25 00:44 149 0 gusting 3 5.6
2018-Apr-25 00:34 119 5.6
2018-Apr-25 00:24 119 5.6
2018-Apr-25 00:14 119 5.6
2018-Apr-25 00:04 119 5.6
2018-Apr-24 23:53 203 0 gusting 5 5.6
2018-Apr-24 23:43 189 5.6
2018-Apr-24 23:33 118 5.6
2018-Apr-24 23:23 169 0 gusting 3 5.6
2018-Apr-24 23:13 138 5.6
2018-Apr-24 23:03 123 0 gusting 3 5.6
2018-Apr-24 22:53 143 5.6
2018-Apr-24 22:43 196 5.6
2018-Apr-24 22:33 182 5.6
2018-Apr-24 22:23 190 0 gusting 4 5.6
2018-Apr-24 22:13 161 0 gusting 6 5.6
2018-Apr-24 22:03 195 2 gusting 7 5.6